Voltar ao catálogo

CONNECTA IOT-3

AtivoComunicaçõesSSO
NORAD 60475·PAYLOAD·🇹🇷 Turkey

Lançado Aug 16, 2024 de Vandenberg Space Force Base

Loading…

Próximas Passagens (próximas 24 horas)

TLE

AtualizadoSource: Space-Track

Época: Sep 14, 2026, 16:25 UTC

1 60475U 24149H   26257.68414487  .00006884  00000-0  28563-3 0  9999
2 60475  97.3663 332.1924 0001835 342.7915  17.3260 15.24170713115434

Acompanhe CONNECTA IOT-3 em tempo real com AllMySat

Download on the App Store